Terminal Aerodrome Forecast
Issued by NWS Norman, OK

Home | Current Version | Previous Version | Text Only | Print | Product List | Glossary On
Versions: 1 2 3 4 5 6 7 8 9 10 11 12 13 14 15 16 17 18 19 20 21 22 23 24 25 26 27 28 29 30 31 32 33 34 35 36 37 38 39 40 41 42 43 44
000
FTUS44 KOUN 272320
TAFOKC
TAF
KOKC 272320Z 2800/2824 17010KT P6SM FEW030 BKN050
      TEMPO 2806/2809 6SM -TSRA BKN050CB
     FM281100 22013KT P6SM OVC025
     FM281600 18013G18KT P6SM BKN030 PROB30 2818/2823 6SM -SHRA
      BKN030=

USA.gov is the U.S. government's official web portal to all federal, state and local government web resources and services.